owner,sensor,date,latitude,longitude,vertical_datum,wind_speed,wind_to_direction,wind_speed_of_gust,qcFlag 
ADCP,ioos:station:NOAA.NDBC:WDEL1:1,2009-12-01T00:30:00Z,28.6620,-89.5510,41.0,3.1,320.0,99.0,'11111222,11111222,11144222' 
ADCP,ioos:station:NOAA.NDBC:WDEL1:1,2009-12-01T01:30:00Z,28.6620,-89.5510,41.0,2.5,344.0,99.0,'11111222,11111222,11144222' 
ADCP,ioos:station:NOAA.NDBC:WDEL1:1,2009-12-01T02:30:00Z,28.6620,-89.5510,41.0,3.1,338.0,99.0,'11111222,11111222,11144222' 
ADCP,ioos:station:NOAA.NDBC:WDEL1:1,2009-12-01T03:30:00Z,28.6620,-89.5510,41.0,2.9,1.0,99.0,'11111222,11111222,11144222' 
ADCP,ioos:station:NOAA.NDBC:WDEL1:1,2009-12-01T04:30:00Z,28.6620,-89.5510,41.0,2.9,338.0,99.0,'11111222,11111222,11144222' 
ADCP,ioos:station:NOAA.NDBC:WDEL1:1,2009-12-01T05:30:00Z,28.6620,-89.5510,41.0,2.9,357.0,99.0,'11111222,11111222,11144222' 
ADCP,ioos:station:NOAA.NDBC:WDEL1:1,2009-12-01T06:30:00Z,28.6620,-89.5510,41.0,4.0,9.0,99.0,'11111222,11111222,11144222' 
ADCP,ioos:station:NOAA.NDBC:WDEL1:1,2009-12-01T07:30:00Z,28.6620,-89.5510,41.0,4.5,9.0,99.0,'11111222,11111222,11144222' 
ADCP,ioos:station:NOAA.NDBC:WDEL1:1,2009-12-01T08:30:00Z,28.6620,-89.5510,41.0,4.0,4.0,99.0,'11111222,11111222,11144222' 
ADCP,ioos:station:NOAA.NDBC:WDEL1:1,2009-12-01T09:30:00Z,28.6620,-89.5510,41.0,4.3,7.0,99.0,'11111222,11111222,11144222' 
ADCP,ioos:station:NOAA.NDBC:WDEL1:1,2009-12-01T10:30:00Z,28.6620,-89.5510,41.0,4.0,10.0,99.0,'11111222,11111222,11144222' 
ADCP,ioos:station:NOAA.NDBC:WDEL1:1,2009-12-01T11:30:00Z,28.6620,-89.5510,41.0,2.1,344.0,99.0,'11111222,11111222,11144222' 
ADCP,ioos:station:NOAA.NDBC:WDEL1:1,2009-12-01T12:30:00Z,28.6620,-89.5510,41.0,2.2,335.0,99.0,'11111222,11111222,11144222' 
ADCP,ioos:station:NOAA.NDBC:WDEL1:1,2009-12-01T13:30:00Z,28.6620,-89.5510,41.0,1.3,268.0,99.0,'11111222,11111222,11144222' 
ADCP,ioos:station:NOAA.NDBC:WDEL1:1,2009-12-01T14:30:00Z,28.6620,-89.5510,41.0,1.8,18.0,99.0,'11111222,11111222,11144222' 
ADCP,ioos:station:NOAA.NDBC:WDEL1:1,2009-12-01T15:30:00Z,28.6620,-89.5510,41.0,2.2,25.0,99.0,'11111222,11111222,11144222' 
ADCP,ioos:station:NOAA.NDBC:WDEL1:1,2009-12-01T16:30:00Z,28.6620,-89.5510,41.0,2.3,32.0,99.0,'11111222,11111222,11144222' 
ADCP,ioos:station:NOAA.NDBC:WDEL1:1,2009-12-01T17:30:00Z,28.6620,-89.5510,41.0,1.4,311.0,99.0,'11111222,11111222,11144222' 
ADCP,ioos:station:NOAA.NDBC:WDEL1:1,2009-12-01T18:30:00Z,28.6620,-89.5510,41.0,1.8,334.0,99.0,'11111222,11111222,11144222' 
ADCP,ioos:station:NOAA.NDBC:WDEL1:1,2009-12-01T19:30:00Z,28.6620,-89.5510,41.0,3.3,2.0,99.0,'11111222,11111222,11144222' 
ADCP,ioos:station:NOAA.NDBC:WDEL1:1,2009-12-01T20:30:00Z,28.6620,-89.5510,41.0,2.3,26.0,99.0,'11111222,11111222,11144222' 
ADCP,ioos:station:NOAA.NDBC:WDEL1:1,2009-12-01T21:30:00Z,28.6620,-89.5510,41.0,1.9,55.0,99.0,'11111222,11111222,11144222' 
ADCP,ioos:station:NOAA.NDBC:WDEL1:1,2009-12-01T22:30:00Z,28.6620,-89.5510,41.0,3.1,79.0,99.0,'11111222,11111222,11144222' 
ADCP,ioos:station:NOAA.NDBC:WDEL1:1,2009-12-01T23:30:00Z,28.6620,-89.5510,41.0,4.4,103.0,99.0,'11111222,11111222,11144222' 
ADCP,ioos:station:NOAA.NDBC:WDEL1:1,2009-12-02T00:30:00Z,28.6620,-89.5510,41.0,5.8,101.0,99.0,'11111222,11111222,11144222' 
ADCP,ioos:station:NOAA.NDBC:WDEL1:1,2009-12-02T01:30:00Z,28.6620,-89.5510,41.0,6.7,109.0,99.0,'11111222,11111222,11144222' 
ADCP,ioos:station:NOAA.NDBC:WDEL1:1,2009-12-02T02:30:00Z,28.6620,-89.5510,41.0,6.4,118.0,99.0,'11111222,11111222,11144222' 
ADCP,ioos:station:NOAA.NDBC:WDEL1:1,2009-12-02T03:30:00Z,28.6620,-89.5510,41.0,5.5,125.0,99.0,'11111222,11111222,11144222' 
ADCP,ioos:station:NOAA.NDBC:WDEL1:1,2009-12-02T04:30:00Z,28.6620,-89.5510,41.0,5.1,133.0,99.0,'11111222,11111222,11144222' 
ADCP,ioos:station:NOAA.NDBC:WDEL1:1,2009-12-02T05:30:00Z,28.6620,-89.5510,41.0,4.5,124.0,99.0,'11111222,11111222,11144222' 
ADCP,ioos:station:NOAA.NDBC:WDEL1:1,2009-12-02T06:30:00Z,28.6620,-89.5510,41.0,3.6,138.0,99.0,'11111222,11111222,11144222' 
ADCP,ioos:station:NOAA.NDBC:WDEL1:1,2009-12-02T07:30:00Z,28.6620,-89.5510,41.0,4.3,122.0,99.0,'11111222,11111222,11144222' 
ADCP,ioos:station:NOAA.NDBC:WDEL1:1,2009-12-02T08:30:00Z,28.6620,-89.5510,41.0,6.1,105.0,99.0,'11111222,11111222,11144222' 
ADCP,ioos:station:NOAA.NDBC:WDEL1:1,2009-12-02T09:30:00Z,28.6620,-89.5510,41.0,4.8,130.0,99.0,'11111222,11111222,11144222' 
ADCP,ioos:station:NOAA.NDBC:WDEL1:1,2009-12-02T10:30:00Z,28.6620,-89.5510,41.0,5.4,182.0,99.0,'11111222,11111222,11144222' 
ADCP,ioos:station:NOAA.NDBC:WDEL1:1,2009-12-02T11:30:00Z,28.6620,-89.5510,41.0,5.0,262.0,99.0,'11111222,11111222,11144222' 
ADCP,ioos:station:NOAA.NDBC:WDEL1:1,2009-12-02T12:30:00Z,28.6620,-89.5510,41.0,3.5,219.0,99.0,'11111222,11111222,11144222' 
ADCP,ioos:station:NOAA.NDBC:WDEL1:1,2009-12-02T13:30:00Z,28.6620,-89.5510,41.0,5.0,221.0,99.0,'11111222,11111222,11144222' 
ADCP,ioos:station:NOAA.NDBC:WDEL1:1,2009-12-02T14:30:00Z,28.6620,-89.5510,41.0,5.0,220.0,99.0,'11111222,11111222,11144222' 
ADCP,ioos:station:NOAA.NDBC:WDEL1:1,2009-12-02T15:30:00Z,28.6620,-89.5510,41.0,4.6,211.0,99.0,'11111222,11111222,11144222' 
ADCP,ioos:station:NOAA.NDBC:WDEL1:1,2009-12-02T16:30:00Z,28.6620,-89.5510,41.0,3.8,206.0,99.0,'11111222,11111222,11144222' 
ADCP,ioos:station:NOAA.NDBC:WDEL1:1,2009-12-02T17:30:00Z,28.6620,-89.5510,41.0,3.5,215.0,99.0,'11111222,11111222,11144222' 
ADCP,ioos:station:NOAA.NDBC:WDEL1:1,2009-12-02T18:30:00Z,28.6620,-89.5510,41.0,4.1,246.0,99.0,'11111222,11111222,11144222' 
ADCP,ioos:station:NOAA.NDBC:WDEL1:1,2009-12-02T19:30:00Z,28.6620,-89.5510,41.0,3.6,247.0,99.0,'11111222,11111222,11144222' 
ADCP,ioos:station:NOAA.NDBC:WDEL1:1,2009-12-02T20:30:00Z,28.6620,-89.5510,41.0,5.4,243.0,99.0,'11111222,11111222,11144222' 
ADCP,ioos:station:NOAA.NDBC:WDEL1:1,2009-12-02T21:30:00Z,28.6620,-89.5510,41.0,6.2,245.0,99.0,'11111222,11111222,11144222' 
ADCP,ioos:station:NOAA.NDBC:WDEL1:1,2009-12-02T22:30:00Z,28.6620,-89.5510,41.0,6.7,255.0,99.0,'11111222,11111222,11144222' 
ADCP,ioos:station:NOAA.NDBC:WDEL1:1,2009-12-02T23:30:00Z,28.6620,-89.5510,41.0,5.6,265.0,99.0,'11111222,11111222,11144222' 
ADCP,ioos:station:NOAA.NDBC:WDEL1:1,2009-12-03T00:30:00Z,28.6620,-89.5510,41.0,5.0,269.0,99.0,'11111222,11111222,11144222' 
ADCP,ioos:station:NOAA.NDBC:WDEL1:1,2009-12-03T01:30:00Z,28.6620,-89.5510,41.0,4.4,282.0,99.0,'11111222,11111222,11144222' 
ADCP,ioos:station:NOAA.NDBC:WDEL1:1,2009-12-03T02:30:00Z,28.6620,-89.5510,41.0,5.2,298.0,99.0,'11111222,11111222,11144222' 
ADCP,ioos:station:NOAA.NDBC:WDEL1:1,2009-12-03T03:30:00Z,28.6620,-89.5510,41.0,5.1,297.0,99.0,'11111222,11111222,11144222' 
ADCP,ioos:station:NOAA.NDBC:WDEL1:1,2009-12-03T04:30:00Z,28.6620,-89.5510,41.0,5.5,298.0,99.0,'11111222,11111222,11144222' 
ADCP,ioos:station:NOAA.NDBC:WDEL1:1,2009-12-03T05:30:00Z,28.6620,-89.5510,41.0,5.7,297.0,99.0,'11111222,11111222,11144222' 
ADCP,ioos:station:NOAA.NDBC:WDEL1:1,2009-12-03T06:30:00Z,28.6620,-89.5510,41.0,6.7,300.0,99.0,'11111222,11111222,11144222' 
ADCP,ioos:station:NOAA.NDBC:WDEL1:1,2009-12-03T07:30:00Z,28.6620,-89.5510,41.0,5.7,308.0,99.0,'11111222,11111222,11144222' 
ADCP,ioos:station:NOAA.NDBC:WDEL1:1,2009-12-03T08:30:00Z,28.6620,-89.5510,41.0,4.8,306.0,99.0,'11111222,11111222,11144222' 
ADCP,ioos:station:NOAA.NDBC:WDEL1:1,2009-12-03T09:30:00Z,28.6620,-89.5510,41.0,4.4,308.0,99.0,'11111222,11111222,11144222' 
ADCP,ioos:station:NOAA.NDBC:WDEL1:1,2009-12-03T10:30:00Z,28.6620,-89.5510,41.0,4.0,308.0,99.0,'11111222,11111222,11144222' 
ADCP,ioos:station:NOAA.NDBC:WDEL1:1,2009-12-03T11:30:00Z,28.6620,-89.5510,41.0,3.6,308.0,99.0,'11111222,11111222,11144222' 
ADCP,ioos:station:NOAA.NDBC:WDEL1:1,2009-12-03T12:30:00Z,28.6620,-89.5510,41.0,3.4,311.0,99.0,'11111222,11111222,11144222' 
ADCP,ioos:station:NOAA.NDBC:WDEL1:1,2009-12-03T13:30:00Z,28.6620,-89.5510,41.0,3.2,313.0,99.0,'11111222,11111222,11144222' 
ADCP,ioos:station:NOAA.NDBC:WDEL1:1,2009-12-03T14:30:00Z,28.6620,-89.5510,41.0,2.6,315.0,99.0,'11111222,11111222,11144222' 
ADCP,ioos:station:NOAA.NDBC:WDEL1:1,2009-12-03T15:30:00Z,28.6620,-89.5510,41.0,2.9,317.0,99.0,'11111222,11111222,11144222' 
ADCP,ioos:station:NOAA.NDBC:WDEL1:1,2009-12-03T16:30:00Z,28.6620,-89.5510,41.0,2.2,320.0,99.0,'11111222,11111222,11144222' 
ADCP,ioos:station:NOAA.NDBC:WDEL1:1,2009-12-03T17:30:00Z,28.6620,-89.5510,41.0,1.5,328.0,99.0,'11111222,11111222,11144222' 
ADCP,ioos:station:NOAA.NDBC:WDEL1:1,2009-12-03T18:30:00Z,28.6620,-89.5510,41.0,1.9,326.0,99.0,'11111222,11111222,11144222' 
ADCP,ioos:station:NOAA.NDBC:WDEL1:1,2009-12-03T19:30:00Z,28.6620,-89.5510,41.0,2.1,324.0,99.0,'11111222,11111222,11144222' 
ADCP,ioos:station:NOAA.NDBC:WDEL1:1,2009-12-03T20:30:00Z,28.6620,-89.5510,41.0,2.0,325.0,99.0,'11111222,11111222,11144222' 
ADCP,ioos:station:NOAA.NDBC:WDEL1:1,2009-12-03T21:30:00Z,28.6620,-89.5510,41.0,2.0,327.0,99.0,'11111222,11111222,11144222' 
ADCP,ioos:station:NOAA.NDBC:WDEL1:1,2009-12-03T22:30:00Z,28.6620,-89.5510,41.0,2.2,328.0,99.0,'11111222,11111222,11144222' 
ADCP,ioos:station:NOAA.NDBC:WDEL1:1,2009-12-03T23:30:00Z,28.6620,-89.5510,41.0,2.1,335.0,99.0,'11111222,11111222,11144222' 
ADCP,ioos:station:NOAA.NDBC:WDEL1:1,2009-12-04T00:30:00Z,28.6620,-89.5510,41.0,2.0,346.0,99.0,'11111222,11111222,11144222' 
ADCP,ioos:station:NOAA.NDBC:WDEL1:1,2009-12-04T01:30:00Z,28.6620,-89.5510,41.0,2.1,355.0,99.0,'11111222,11111222,11144222' 
ADCP,ioos:station:NOAA.NDBC:WDEL1:1,2009-12-04T02:30:00Z,28.6620,-89.5510,41.0,2.1,356.0,99.0,'11111222,11111222,11144222' 
ADCP,ioos:station:NOAA.NDBC:WDEL1:1,2009-12-04T03:30:00Z,28.6620,-89.5510,41.0,1.6,347.0,99.0,'11111222,11111222,11144222' 
ADCP,ioos:station:NOAA.NDBC:WDEL1:1,2009-12-04T04:30:00Z,28.6620,-89.5510,41.0,1.9,351.0,99.0,'11111222,11111222,11144222' 
ADCP,ioos:station:NOAA.NDBC:WDEL1:1,2009-12-04T05:30:00Z,28.6620,-89.5510,41.0,1.6,345.0,99.0,'11111222,11111222,11144222' 
ADCP,ioos:station:NOAA.NDBC:WDEL1:1,2009-12-04T06:30:00Z,28.6620,-89.5510,41.0,2.4,341.0,99.0,'11111222,11111222,11144222' 
ADCP,ioos:station:NOAA.NDBC:WDEL1:1,2009-12-04T07:30:00Z,28.6620,-89.5510,41.0,2.7,335.0,99.0,'11111222,11111222,11144222' 
ADCP,ioos:station:NOAA.NDBC:WDEL1:1,2009-12-04T08:30:00Z,28.6620,-89.5510,41.0,2.7,337.0,99.0,'11111222,11111222,11144222' 
ADCP,ioos:station:NOAA.NDBC:WDEL1:1,2009-12-04T09:30:00Z,28.6620,-89.5510,41.0,2.8,341.0,99.0,'11111222,11111222,11144222' 
ADCP,ioos:station:NOAA.NDBC:WDEL1:1,2009-12-04T10:30:00Z,28.6620,-89.5510,41.0,3.0,357.0,99.0,'11111222,11111222,11144222' 
ADCP,ioos:station:NOAA.NDBC:WDEL1:1,2009-12-04T11:30:00Z,28.6620,-89.5510,41.0,3.9,6.0,99.0,'11111222,11111222,11144222' 
ADCP,ioos:station:NOAA.NDBC:WDEL1:1,2009-12-04T12:30:00Z,28.6620,-89.5510,41.0,3.2,360.0,99.0,'11111222,11144222,11144222' 
ADCP,ioos:station:NOAA.NDBC:WDEL1:1,2009-12-04T13:30:00Z,28.6620,-89.5510,41.0,3.7,7.0,99.0,'11111222,11111222,11144222' 
ADCP,ioos:station:NOAA.NDBC:WDEL1:1,2009-12-04T14:30:00Z,28.6620,-89.5510,41.0,2.7,358.0,99.0,'11111222,11111222,11144222' 
ADCP,ioos:station:NOAA.NDBC:WDEL1:1,2009-12-04T15:30:00Z,28.6620,-89.5510,41.0,2.6,352.0,99.0,'11111222,11111222,11144222' 
ADCP,ioos:station:NOAA.NDBC:WDEL1:1,2009-12-04T16:30:00Z,28.6620,-89.5510,41.0,3.0,347.0,99.0,'11111222,11111222,11144222' 
ADCP,ioos:station:NOAA.NDBC:WDEL1:1,2009-12-04T17:30:00Z,28.6620,-89.5510,41.0,3.1,353.0,99.0,'11111222,11111222,11144222' 
ADCP,ioos:station:NOAA.NDBC:WDEL1:1,2009-12-04T18:30:00Z,28.6620,-89.5510,41.0,4.1,6.0,99.0,'11111222,11111222,11144222' 
ADCP,ioos:station:NOAA.NDBC:WDEL1:1,2009-12-04T19:30:00Z,28.6620,-89.5510,41.0,3.3,357.0,99.0,'11111222,11111222,11144222' 
ADCP,ioos:station:NOAA.NDBC:WDEL1:1,2009-12-04T20:30:00Z,28.6620,-89.5510,41.0,4.0,5.0,99.0,'11111222,11111222,11144222' 
ADCP,ioos:station:NOAA.NDBC:WDEL1:1,2009-12-04T21:30:00Z,28.6620,-89.5510,41.0,3.5,355.0,99.0,'11111222,11111222,11144222' 
ADCP,ioos:station:NOAA.NDBC:WDEL1:1,2009-12-04T22:30:00Z,28.6620,-89.5510,41.0,3.4,348.0,99.0,'11111222,11111222,11144222' 
ADCP,ioos:station:NOAA.NDBC:WDEL1:1,2009-12-04T23:30:00Z,28.6620,-89.5510,41.0,3.7,351.0,99.0,'11111222,11111222,11144222' 
ADCP,ioos:station:NOAA.NDBC:WDEL1:1,2009-12-05T00:30:00Z,28.6620,-89.5510,41.0,4.5,337.0,99.0,'11111222,11111222,11144222' 
ADCP,ioos:station:NOAA.NDBC:WDEL1:1,2009-12-05T01:30:00Z,28.6620,-89.5510,41.0,4.9,333.0,99.0,'11111222,11111222,11144222' 
ADCP,ioos:station:NOAA.NDBC:WDEL1:1,2009-12-05T02:30:00Z,28.6620,-89.5510,41.0,4.7,336.0,99.0,'11111222,11111222,11144222' 
ADCP,ioos:station:NOAA.NDBC:WDEL1:1,2009-12-05T03:30:00Z,28.6620,-89.5510,41.0,5.4,327.0,99.0,'11111222,11111222,11144222' 
ADCP,ioos:station:NOAA.NDBC:WDEL1:1,2009-12-05T04:30:00Z,28.6620,-89.5510,41.0,6.0,326.0,99.0,'11111222,11111222,11144222' 
ADCP,ioos:station:NOAA.NDBC:WDEL1:1,2009-12-05T05:30:00Z,28.6620,-89.5510,41.0,4.2,333.0,99.0,'11111222,11111222,11144222' 
ADCP,ioos:station:NOAA.NDBC:WDEL1:1,2009-12-05T06:30:00Z,28.6620,-89.5510,41.0,3.4,353.0,99.0,'11111222,11111222,11144222' 
ADCP,ioos:station:NOAA.NDBC:WDEL1:1,2009-12-05T07:30:00Z,28.6620,-89.5510,41.0,3.2,351.0,99.0,'11111222,11111222,11144222' 
ADCP,ioos:station:NOAA.NDBC:WDEL1:1,2009-12-05T08:30:00Z,28.6620,-89.5510,41.0,3.0,343.0,99.0,'11111222,11111222,11144222' 
ADCP,ioos:station:NOAA.NDBC:WDEL1:1,2009-12-05T09:30:00Z,28.6620,-89.5510,41.0,3.8,327.0,99.0,'11111222,11111222,11144222' 
ADCP,ioos:station:NOAA.NDBC:WDEL1:1,2009-12-05T10:30:00Z,28.6620,-89.5510,41.0,4.5,323.0,99.0,'11111222,11111222,11144222' 
ADCP,ioos:station:NOAA.NDBC:WDEL1:1,2009-12-05T11:30:00Z,28.6620,-89.5510,41.0,4.7,322.0,99.0,'11111222,11111222,11144222' 
ADCP,ioos:station:NOAA.NDBC:WDEL1:1,2009-12-05T12:30:00Z,28.6620,-89.5510,41.0,4.7,321.0,99.0,'11111222,11111222,11144222' 
ADCP,ioos:station:NOAA.NDBC:WDEL1:1,2009-12-05T13:30:00Z,28.6620,-89.5510,41.0,4.1,322.0,99.0,'11111222,11111222,11144222' 
ADCP,ioos:station:NOAA.NDBC:WDEL1:1,2009-12-05T14:30:00Z,28.6620,-89.5510,41.0,3.6,324.0,99.0,'11111222,11111222,11144222' 
ADCP,ioos:station:NOAA.NDBC:WDEL1:1,2009-12-05T15:30:00Z,28.6620,-89.5510,41.0,3.3,326.0,99.0,'11111222,11111222,11144222' 
ADCP,ioos:station:NOAA.NDBC:WDEL1:1,2009-12-05T16:30:00Z,28.6620,-89.5510,41.0,3.0,327.0,99.0,'11111222,11111222,11144222' 
ADCP,ioos:station:NOAA.NDBC:WDEL1:1,2009-12-05T17:30:00Z,28.6620,-89.5510,41.0,2.7,336.0,99.0,'11111222,11111222,11144222' 
ADCP,ioos:station:NOAA.NDBC:WDEL1:1,2009-12-05T18:30:00Z,28.6620,-89.5510,41.0,2.3,340.0,99.0,'11111222,11111222,11144222' 
ADCP,ioos:station:NOAA.NDBC:WDEL1:1,2009-12-05T19:30:00Z,28.6620,-89.5510,41.0,2.1,353.0,99.0,'11111222,11111222,11144222' 
ADCP,ioos:station:NOAA.NDBC:WDEL1:1,2009-12-05T20:30:00Z,28.6620,-89.5510,41.0,2.1,344.0,99.0,'11111222,11111222,11144222' 
ADCP,ioos:station:NOAA.NDBC:WDEL1:1,2009-12-05T21:30:00Z,28.6620,-89.5510,41.0,1.6,344.0,99.0,'11111222,11111222,11144222' 
ADCP,ioos:station:NOAA.NDBC:WDEL1:1,2009-12-05T22:30:00Z,28.6620,-89.5510,41.0,1.9,337.0,99.0,'11111222,11111222,11144222' 
ADCP,ioos:station:NOAA.NDBC:WDEL1:1,2009-12-05T23:30:00Z,28.6620,-89.5510,41.0,1.9,346.0,99.0,'11111222,11111222,11144222' 
ADCP,ioos:station:NOAA.NDBC:WDEL1:1,2009-12-06T00:30:00Z,28.6620,-89.5510,41.0,1.8,349.0,99.0,'11111222,11111222,11144222' 
ADCP,ioos:station:NOAA.NDBC:WDEL1:1,2009-12-06T01:30:00Z,28.6620,-89.5510,41.0,2.1,354.0,99.0,'11111222,11111222,11144222' 
ADCP,ioos:station:NOAA.NDBC:WDEL1:1,2009-12-06T02:30:00Z,28.6620,-89.5510,41.0,2.5,4.0,99.0,'11111222,11111222,11144222' 
ADCP,ioos:station:NOAA.NDBC:WDEL1:1,2009-12-06T03:30:00Z,28.6620,-89.5510,41.0,2.7,7.0,99.0,'11111222,11111222,11144222' 
ADCP,ioos:station:NOAA.NDBC:WDEL1:1,2009-12-06T04:30:00Z,28.6620,-89.5510,41.0,2.4,4.0,99.0,'11111222,11111222,11144222' 
ADCP,ioos:station:NOAA.NDBC:WDEL1:1,2009-12-06T05:30:00Z,28.6620,-89.5510,41.0,1.5,15.0,99.0,'11111222,11111222,11144222' 
ADCP,ioos:station:NOAA.NDBC:WDEL1:1,2009-12-06T06:30:00Z,28.6620,-89.5510,41.0,1.6,13.0,99.0,'11111222,11111222,11144222' 
ADCP,ioos:station:NOAA.NDBC:WDEL1:1,2009-12-06T07:30:00Z,28.6620,-89.5510,41.0,1.4,13.0,99.0,'11111222,11111222,11144222' 
ADCP,ioos:station:NOAA.NDBC:WDEL1:1,2009-12-06T08:30:00Z,28.6620,-89.5510,41.0,1.5,3.0,99.0,'11111222,11111222,11144222' 
ADCP,ioos:station:NOAA.NDBC:WDEL1:1,2009-12-06T09:30:00Z,28.6620,-89.5510,41.0,1.6,360.0,99.0,'11111222,11144222,11144222' 
ADCP,ioos:station:NOAA.NDBC:WDEL1:1,2009-12-06T10:30:00Z,28.6620,-89.5510,41.0,1.7,345.0,99.0,'11111222,11111222,11144222' 
ADCP,ioos:station:NOAA.NDBC:WDEL1:1,2009-12-06T11:30:00Z,28.6620,-89.5510,41.0,2.0,360.0,99.0,'11111222,11144222,11144222' 
ADCP,ioos:station:NOAA.NDBC:WDEL1:1,2009-12-06T12:30:00Z,28.6620,-89.5510,41.0,2.0,6.0,99.0,'11111222,11111222,11144222' 
ADCP,ioos:station:NOAA.NDBC:WDEL1:1,2009-12-06T13:30:00Z,28.6620,-89.5510,41.0,2.0,11.0,99.0,'11111222,11111222,11144222' 
ADCP,ioos:station:NOAA.NDBC:WDEL1:1,2009-12-06T14:30:00Z,28.6620,-89.5510,41.0,2.0,62.0,99.0,'11111222,11111222,11144222' 
ADCP,ioos:station:NOAA.NDBC:WDEL1:1,2009-12-06T15:30:00Z,28.6620,-89.5510,41.0,2.5,94.0,99.0,'11111222,11111222,11144222' 
ADCP,ioos:station:NOAA.NDBC:WDEL1:1,2009-12-06T16:30:00Z,28.6620,-89.5510,41.0,2.3,91.0,99.0,'11111222,11111222,11144222' 
ADCP,ioos:station:NOAA.NDBC:WDEL1:1,2009-12-06T17:30:00Z,28.6620,-89.5510,41.0,2.1,77.0,99.0,'11111222,11111222,11144222' 
ADCP,ioos:station:NOAA.NDBC:WDEL1:1,2009-12-06T18:30:00Z,28.6620,-89.5510,41.0,2.1,94.0,99.0,'11111222,11111222,11144222' 
ADCP,ioos:station:NOAA.NDBC:WDEL1:1,2009-12-06T19:30:00Z,28.6620,-89.5510,41.0,2.0,94.0,99.0,'11111222,11111222,11144222' 
ADCP,ioos:station:NOAA.NDBC:WDEL1:1,2009-12-06T20:30:00Z,28.6620,-89.5510,41.0,2.1,80.0,99.0,'11111222,11111222,11144222' 
ADCP,ioos:station:NOAA.NDBC:WDEL1:1,2009-12-06T21:30:00Z,28.6620,-89.5510,41.0,2.5,96.0,99.0,'11111222,11111222,11144222' 
ADCP,ioos:station:NOAA.NDBC:WDEL1:1,2009-12-06T22:30:00Z,28.6620,-89.5510,41.0,1.6,92.0,99.0,'11111222,11111222,11144222' 
ADCP,ioos:station:NOAA.NDBC:WDEL1:1,2009-12-06T23:30:00Z,28.6620,-89.5510,41.0,1.5,91.0,99.0,'11111222,11111222,11144222' 
ADCP,ioos:station:NOAA.NDBC:WDEL1:1,2009-12-07T00:30:00Z,28.6620,-89.5510,41.0,1.9,96.0,99.0,'11111222,11111222,11144222' 
ADCP,ioos:station:NOAA.NDBC:WDEL1:1,2009-12-07T01:30:00Z,28.6620,-89.5510,41.0,1.5,87.0,99.0,'11111222,11111222,11144222' 
ADCP,ioos:station:NOAA.NDBC:WDEL1:1,2009-12-07T02:30:00Z,28.6620,-89.5510,41.0,2.0,82.0,99.0,'11111222,11111222,11144222' 
ADCP,ioos:station:NOAA.NDBC:WDEL1:1,2009-12-07T03:30:00Z,28.6620,-89.5510,41.0,2.1,89.0,99.0,'11111222,11111222,11144222' 
ADCP,ioos:station:NOAA.NDBC:WDEL1:1,2009-12-07T04:30:00Z,28.6620,-89.5510,41.0,2.3,95.0,99.0,'11111222,11111222,11144222' 
ADCP,ioos:station:NOAA.NDBC:WDEL1:1,2009-12-07T05:30:00Z,28.6620,-89.5510,41.0,3.8,96.0,99.0,'11111222,11111222,11144222' 
ADCP,ioos:station:NOAA.NDBC:WDEL1:1,2009-12-07T06:30:00Z,28.6620,-89.5510,41.0,4.2,96.0,99.0,'11111222,11111222,11144222' 
ADCP,ioos:station:NOAA.NDBC:WDEL1:1,2009-12-07T07:30:00Z,28.6620,-89.5510,41.0,3.7,97.0,99.0,'11111222,11111222,11144222' 
ADCP,ioos:station:NOAA.NDBC:WDEL1:1,2009-12-07T08:30:00Z,28.6620,-89.5510,41.0,4.5,96.0,99.0,'11111222,11111222,11144222' 
ADCP,ioos:station:NOAA.NDBC:WDEL1:1,2009-12-07T09:30:00Z,28.6620,-89.5510,41.0,4.0,97.0,99.0,'11111222,11111222,11144222' 
ADCP,ioos:station:NOAA.NDBC:WDEL1:1,2009-12-07T10:30:00Z,28.6620,-89.5510,41.0,3.7,96.0,99.0,'11111222,11111222,11144222' 
ADCP,ioos:station:NOAA.NDBC:WDEL1:1,2009-12-07T11:30:00Z,28.6620,-89.5510,41.0,3.9,96.0,99.0,'11111222,11111222,11144222' 
ADCP,ioos:station:NOAA.NDBC:WDEL1:1,2009-12-07T12:30:00Z,28.6620,-89.5510,41.0,4.1,95.0,99.0,'11111222,11111222,11144222' 
ADCP,ioos:station:NOAA.NDBC:WDEL1:1,2009-12-07T13:30:00Z,28.6620,-89.5510,41.0,4.2,96.0,99.0,'11111222,11111222,11144222' 
ADCP,ioos:station:NOAA.NDBC:WDEL1:1,2009-12-07T14:30:00Z,28.6620,-89.5510,41.0,4.2,95.0,99.0,'11111222,11111222,11144222' 
ADCP,ioos:station:NOAA.NDBC:WDEL1:1,2009-12-07T15:30:00Z,28.6620,-89.5510,41.0,3.8,96.0,99.0,'11111222,11111222,11144222' 
ADCP,ioos:station:NOAA.NDBC:WDEL1:1,2009-12-07T16:30:00Z,28.6620,-89.5510,41.0,4.0,98.0,99.0,'11111222,11111222,11144222' 
ADCP,ioos:station:NOAA.NDBC:WDEL1:1,2009-12-07T17:30:00Z,28.6620,-89.5510,41.0,3.6,100.0,99.0,'11111222,11111222,11144222' 
ADCP,ioos:station:NOAA.NDBC:WDEL1:1,2009-12-07T18:30:00Z,28.6620,-89.5510,41.0,3.7,100.0,99.0,'11111222,11111222,11144222' 
ADCP,ioos:station:NOAA.NDBC:WDEL1:1,2009-12-07T19:30:00Z,28.6620,-89.5510,41.0,3.7,96.0,99.0,'11111222,11111222,11144222' 
ADCP,ioos:station:NOAA.NDBC:WDEL1:1,2009-12-07T20:30:00Z,28.6620,-89.5510,41.0,4.0,96.0,99.0,'11111222,11111222,11144222' 
ADCP,ioos:station:NOAA.NDBC:WDEL1:1,2009-12-07T21:30:00Z,28.6620,-89.5510,41.0,4.4,95.0,99.0,'11111222,11111222,11144222' 
ADCP,ioos:station:NOAA.NDBC:WDEL1:1,2009-12-07T22:30:00Z,28.6620,-89.5510,41.0,4.0,96.0,99.0,'11111222,11111222,11144222' 
ADCP,ioos:station:NOAA.NDBC:WDEL1:1,2009-12-07T23:30:00Z,28.6620,-89.5510,41.0,2.9,96.0,99.0,'11111222,11111222,11144222' 
ADCP,ioos:station:NOAA.NDBC:WDEL1:1,2009-12-08T00:30:00Z,28.6620,-89.5510,41.0,2.3,84.0,99.0,'11111222,11111222,11144222' 
ADCP,ioos:station:NOAA.NDBC:WDEL1:1,2009-12-08T01:30:00Z,28.6620,-89.5510,41.0,2.6,84.0,99.0,'11111222,11111222,11144222' 
ADCP,ioos:station:NOAA.NDBC:WDEL1:1,2009-12-08T02:30:00Z,28.6620,-89.5510,41.0,2.2,92.0,99.0,'11111222,11111222,11144222' 
ADCP,ioos:station:NOAA.NDBC:WDEL1:1,2009-12-08T03:30:00Z,28.6620,-89.5510,41.0,2.9,82.0,99.0,'11111222,11111222,11144222' 
ADCP,ioos:station:NOAA.NDBC:WDEL1:1,2009-12-08T04:30:00Z,28.6620,-89.5510,41.0,3.1,83.0,99.0,'11111222,11111222,11144222' 
ADCP,ioos:station:NOAA.NDBC:WDEL1:1,2009-12-08T05:30:00Z,28.6620,-89.5510,41.0,2.8,85.0,99.0,'11111222,11111222,11144222' 
ADCP,ioos:station:NOAA.NDBC:WDEL1:1,2009-12-08T06:30:00Z,28.6620,-89.5510,41.0,2.2,89.0,99.0,'11111222,11111222,11144222' 
ADCP,ioos:station:NOAA.NDBC:WDEL1:1,2009-12-08T07:30:00Z,28.6620,-89.5510,41.0,3.7,95.0,99.0,'11111222,11111222,11144222' 
ADCP,ioos:station:NOAA.NDBC:WDEL1:1,2009-12-08T08:30:00Z,28.6620,-89.5510,41.0,5.6,96.0,99.0,'11111222,11111222,11144222' 
ADCP,ioos:station:NOAA.NDBC:WDEL1:1,2009-12-08T09:30:00Z,28.6620,-89.5510,41.0,4.7,96.0,99.0,'11111222,11111222,11144222' 
ADCP,ioos:station:NOAA.NDBC:WDEL1:1,2009-12-08T10:30:00Z,28.6620,-89.5510,41.0,5.4,96.0,99.0,'11111222,11111222,11144222' 
ADCP,ioos:station:NOAA.NDBC:WDEL1:1,2009-12-08T11:30:00Z,28.6620,-89.5510,41.0,5.4,97.0,99.0,'11111222,11111222,11144222' 
ADCP,ioos:station:NOAA.NDBC:WDEL1:1,2009-12-08T12:30:00Z,28.6620,-89.5510,41.0,5.4,98.0,99.0,'11111222,11111222,11144222' 
ADCP,ioos:station:NOAA.NDBC:WDEL1:1,2009-12-08T13:30:00Z,28.6620,-89.5510,41.0,5.4,99.0,99.0,'11111222,11111222,11144222' 
ADCP,ioos:station:NOAA.NDBC:WDEL1:1,2009-12-08T14:30:00Z,28.6620,-89.5510,41.0,4.6,103.0,99.0,'11111222,11111222,11144222' 
ADCP,ioos:station:NOAA.NDBC:WDEL1:1,2009-12-08T15:30:00Z,28.6620,-89.5510,41.0,4.9,105.0,99.0,'11111222,11111222,11144222' 
ADCP,ioos:station:NOAA.NDBC:WDEL1:1,2009-12-08T16:30:00Z,28.6620,-89.5510,41.0,5.0,105.0,99.0,'11111222,11111222,11144222' 
ADCP,ioos:station:NOAA.NDBC:WDEL1:1,2009-12-08T17:30:00Z,28.6620,-89.5510,41.0,5.0,104.0,99.0,'11111222,11111222,11144222' 
ADCP,ioos:station:NOAA.NDBC:WDEL1:1,2009-12-08T18:30:00Z,28.6620,-89.5510,41.0,4.6,108.0,99.0,'11111222,11111222,11144222' 
ADCP,ioos:station:NOAA.NDBC:WDEL1:1,2009-12-08T19:30:00Z,28.6620,-89.5510,41.0,4.3,113.0,99.0,'11111222,11111222,11144222' 
ADCP,ioos:station:NOAA.NDBC:WDEL1:1,2009-12-08T20:30:00Z,28.6620,-89.5510,41.0,4.3,110.0,99.0,'11111222,11111222,11144222' 
ADCP,ioos:station:NOAA.NDBC:WDEL1:1,2009-12-08T21:30:00Z,28.6620,-89.5510,41.0,4.8,107.0,99.0,'11111222,11111222,11144222' 
ADCP,ioos:station:NOAA.NDBC:WDEL1:1,2009-12-08T22:30:00Z,28.6620,-89.5510,41.0,4.7,109.0,99.0,'11111222,11111222,11144222' 
ADCP,ioos:station:NOAA.NDBC:WDEL1:1,2009-12-08T23:30:00Z,28.6620,-89.5510,41.0,4.8,112.0,99.0,'11111222,11111222,11144222' 
ADCP,ioos:station:NOAA.NDBC:WDEL1:1,2009-12-09T00:30:00Z,28.6620,-89.5510,41.0,4.8,111.0,99.0,'11111222,11111222,11144222' 